Flag for Cabo Verde Weather past 2 weeks in Santa Maria, Cabo Verde

Now
79 °F

Passing clouds.


Feels Like: 82 °F
Forecast: 79 / 87 °F
Wind: 14 mph from Northeast

Location: Sal

Current Time: Sep 19, 2014 at 3:37:19 AM

Latest Report: Sep 19, 2014 at 3:00 AM


Visibility: N/A

Pressure: 29.89 "Hg

Humidity: 79%

Dew point: 72 °F

Location of Santa MariaLocation

Historic Weather in Santa Maria — Graph

°F

Santa Maria temperature yesterday

Maximum temperature yesterday: 86 °F (at 12:00 PM)
Minimum temperature yesterday: 79 °F (at 12:00 AM)
Average temperature yesterday: 81 °F

Past Weeks' High & Low Weather Summary

 TemperatureHumidityPressure
High91 °F (Sep 13, 11:00 AM)100% (Sep 6, 1:00 AM)29.98 "Hg (Sep 6, 1:00 AM)
Low75 °F (Sep 4, 3:00 AM)52% (Sep 14, 1:00 PM)29.86 "Hg (Sep 4, 4:00 PM)
Average81 °F78%29.93 "Hg
* Reported Sep 4 3:00 AM — Sep 19 2:00 AM, Santa Maria, Weather by CustomWeather, © 2014

Note: Actual official high and low records may vary slightly from our data, if they occured in-between our weather recording intervals... More about our weather records

Advertising

Santa Maria weather history for previous 24 hours

 ConditionsComfort  
Time TempWeatherWind HumidityBarometerVisibility
2:00 AM
Sep 19
79 °FPassing clouds.12 mph79%29.89 "HgN/A
1:00 AM79 °FPassing clouds.12 mph79%29.92 "HgN/A
12:00 AM79 °FPassing clouds.14 mph79%29.95 "HgN/A
11:00 PM
Sep 18
79 °FPassing clouds.13 mph74%29.95 "HgN/A
10:00 PM79 °FPassing clouds.13 mph79%29.95 "HgN/A
9:00 PM79 °FPassing clouds.13 mph79%29.92 "HgN/A
8:00 PM79 °FPassing clouds.12 mph79%29.92 "HgN/A
7:00 PM79 °FPassing clouds.15 mph79%29.89 "HgN/A
6:00 PM81 °FPassing clouds.16 mph70%29.89 "HgN/A
5:00 PM82 °FPassing clouds.17 mph66%29.89 "HgN/A
4:00 PM84 °FBroken clouds.17 mph62%29.89 "HgN/A
3:00 PM86 °FBroken clouds.21 mph62%29.89 "HgN/A
2:00 PM86 °FBroken clouds.20 mph66%29.89 "HgN/A
1:00 PM86 °FBroken clouds.17 mph62%29.92 "HgN/A
12:00 PM86 °FBroken clouds.18 mph62%29.92 "HgN/A
11:00 AM84 °FPartly sunny.18 mph66%29.95 "HgN/A
10:00 AM81 °FPartly sunny.16 mph74%29.95 "HgN/A
9:00 AM81 °FPartly sunny.15 mph74%29.95 "HgN/A
8:00 AM81 °FPartly sunny.16 mph74%29.92 "HgN/A
7:00 AM79 °FPartly sunny.15 mph79%29.92 "HgN/A
6:00 AM79 °FPartly sunny.16 mph79%29.92 "HgN/A
5:00 AM79 °FPartly sunny.16 mph79%29.89 "HgN/A
4:00 AM79 °FPassing clouds.12 mph79%29.89 "HgN/A
3:00 AM79 °FPassing clouds.13 mph79%29.92 "HgN/A
Weather by CustomWeather, © 2014

See weather overviewHow to use our weather pages